FW5647 Weather Reports


time (UTC)temp
C
wind
direction
speed
KPH
gust
KPH
rain 1hr
cm
rain 24hr
cm
rain mn
cm
humidity
%
barometer
mb
20260906141538 20 43 3.2 9.7 0.00 0.00 0.00 82 1020.0
20260906140044 19 32 1.6 6.4 0.00 0.00 0.00 88 1019.9
20260906134540 17 333 3.2 9.7 0.00 0.00 0.00 96 1020.0
20260906133046 17 314 1.6 8.0 0.00 0.00 0.00 96 1020.0
20260906131540 17 147 0.0 4.8 0.00 0.00 0.00 96 1020.0
20260906130044 16 0 0.0 3.2 0.00 0.00 0.00 96 1019.8
20260906124542 15 44 0.0 4.8 0.00 0.00 0.00 96 1019.6
20260906123040 15 0 0.0 1.6 0.00 0.00 0.00 96 1019.7
20260906121539 13 0 0.0 0.0 0.00 0.00 0.00 96 1019.6
20260906120045 13 0 0.0 0.0 0.00 0.00 0.00 96 1019.4
20260906114552 13 0 0.0 0.0 0.00 0.00 0.00 96 1019.1
20260906113041 12 0 0.0 0.0 0.00 0.00 0.00 96 1018.9
20260906111541 12 0 0.0 0.0 0.00 0.00 0.00 96 1018.8
20260906110041 12 0 0.0 0.0 0.00 0.00 0.00 96 1018.9
20260906104547 12 0 0.0 0.0 0.00 0.00 0.00 96 1018.7
20260906103041 12 0 0.0 0.0 0.00 0.00 0.00 96 1018.6
20260906101547 12 0 0.0 0.0 0.00 0.00 0.00 96 1018.7
20260906100046 12 0 0.0 0.0 0.00 0.00 0.00 96 1018.5
20260906094558 12 0 0.0 0.0 0.00 0.00 0.00 96 1018.5
20260906093117 12 0 0.0 0.0 0.00 0.00 0.00 96 1018.5
20260906091548 12 0 0.0 0.0 0.00 0.00 0.00 95 1018.5
20260906090043 12 0 0.0 0.0 0.00 0.00 0.00 95 1018.4
20260906084541 13 0 0.0 0.0 0.00 0.00 0.00 95 1018.3
20260906083046 13 0 0.0 0.0 0.00 0.00 0.00 95 1018.3
20260906081548 13 0 0.0 0.0 0.00 0.00 0.00 95 1018.2
20260906080045 13 0 0.0 0.0 0.00 0.00 0.00 95 1018.1
20260906074542 13 0 0.0 0.0 0.00 0.00 0.00 95 1018.0
20260906073041 13 0 0.0 0.0 0.00 0.00 0.00 95 1018.2
20260906071548 13 0 0.0 0.0 0.00 0.00 0.00 95 1018.1
20260906070047 13 0 0.0 0.0 0.00 0.00 0.00 95 1017.9
20260906064541 13 0 0.0 0.0 0.00 0.00 0.00 95 1018.0
20260906063050 13 0 0.0 0.0 0.00 0.00 0.00 95 1018.1
20260906061543 13 0 0.0 0.0 0.00 0.00 0.00 94 1018.1
20260906060048 13 0 0.0 0.0 0.00 0.00 0.00 94 1017.9
20260906054543 13 0 0.0 0.0 0.00 0.00 0.00 94 1017.7
20260906053042 13 0 0.0 0.0 0.00 0.00 0.00 94 1017.6
20260906051558 13 0 0.0 0.0 0.00 0.00 0.00 94 1017.8
20260906050045 13 0 0.0 0.0 0.00 0.00 0.00 93 1018.0
20260906044544 13 0 0.0 0.0 0.00 0.00 0.00 93 1017.9
20260906043041 13 0 0.0 0.0 0.00 0.00 0.00 93 1017.8
20260906041541 14 0 0.0 0.0 0.00 0.00 0.00 92 1017.7
20260906040109 14 0 0.0 0.0 0.00 0.00 0.00 91 1017.6
20260906034541 15 0 0.0 0.0 0.00 0.00 0.00 92 1017.3
20260906033045 15 0 0.0 0.0 0.00 0.00 0.00 91 1017.3
20260906031543 15 0 0.0 0.0 0.00 0.00 0.00 89 1017.4
20260906030043 16 0 0.0 0.0 0.00 0.00 0.00 89 1017.5
20260906024550 16 0 0.0 0.0 0.00 0.00 0.00 87 1017.5
20260906023047 17 0 0.0 0.0 0.00 0.00 0.00 86 1017.3
20260906021547 17 0 0.0 0.0 0.00 0.00 0.00 84 1017.1
20260906020043 18 0 0.0 1.6 0.00 0.00 0.00 83 1017.3
20260906014611 18 0 1.6 6.4 0.00 0.00 0.00 82 1017.0
20260906013047 18 0 0.0 0.0 0.00 0.00 0.00 84 1016.8
20260906011541 18 0 0.0 1.6 0.00 0.00 0.00 85 1016.6
20260906010046 18 0 0.0 3.2 0.00 0.00 0.00 85 1016.3
20260906004547 18 0 0.0 0.0 0.00 0.00 0.00 84 1016.1
20260906003040 19 0 0.0 1.6 0.00 0.00 0.00 82 1016.0
20260906001542 20 0 0.0 0.0 0.00 0.00 0.00 79 1016.0
20260906000047 21 0 0.0 1.6 0.00 0.00 0.00 74 1015.6
20260905234542 21 0 0.0 1.6 0.00 0.00 0.00 72 1015.6
20260905233045 22 0 0.0 3.2 0.00 0.00 0.00 70 1015.7
20260905231543 23 27 1.6 4.8 0.00 0.00 0.00 67 1015.8
20260905230048 25 308 0.0 1.6 0.00 0.00 0.00 65 1015.7
20260905224540 25 356 0.0 3.2 0.00 0.00 0.00 67 1015.6
20260905223043 24 314 0.0 4.8 0.00 0.00 0.00 66 1015.3
20260905221603 25 33 3.2 8.0 0.00 0.00 0.00 64 1015.2
20260905220041 25 53 1.6 4.8 0.00 0.00 0.00 68 1015.4
20260905214542 25 318 0.0 3.2 0.00 0.00 0.00 69 1015.3
20260905213056 25 39 0.0 3.2 0.00 0.00 0.00 68 1015.1
20260905211545 25 291 1.6 6.4 0.00 0.00 0.00 68 1015.1
20260905210050 25 115 1.6 9.7 0.00 0.00 0.00 67 1015.1
20260905204549 26 89 3.2 9.7 0.00 0.00 0.00 64 1015.3
20260905203044 25 63 3.2 9.7 0.00 0.00 0.00 66 1015.2
20260905201551 25 105 4.8 11.3 0.00 0.00 0.00 64 1015.3
20260905200045 25 98 1.6 6.4 0.00 0.00 0.00 67 1015.6
20260905194544 26 356 0.0 4.8 0.00 0.00 0.00 68 1015.6
20260905193044 25 150 1.6 6.4 0.00 0.00 0.00 67 1015.6
20260905191541 25 72 6.4 12.9 0.00 0.00 0.00 68 1015.5
20260905190038 25 39 1.6 9.7 0.00 0.00 0.00 68 1015.8
20260905184552 25 50 3.2 9.7 0.00 0.00 0.00 70 1015.8
20260905183042 25 87 3.2 8.0 0.00 0.00 0.00 71 1016.0
20260905181604 25 32 3.2 8.0 0.00 0.00 0.00 69 1015.9
20260905180046 25 51 3.2 12.9 0.00 0.00 0.00 70 1015.9
20260905174543 25 130 3.2 9.7 0.00 0.00 0.00 71 1015.8
20260905173053 24 121 4.8 9.7 0.00 0.00 0.00 70 1015.8
20260905171547 24 28 4.8 12.9 0.00 0.00 0.00 70 1015.8
20260905170043 25 36 3.2 4.8 0.00 0.00 0.00 70 1016.0
20260905164540 24 202 3.2 9.7 0.00 0.00 0.00 71 1016.1
20260905163042 23 220 4.8 9.7 0.00 0.00 0.00 72 1016.2
20260905161559 23 35 3.2 11.3 0.00 0.00 0.00 74 1016.1
20260905160045 23 143 4.8 12.9 0.00 0.00 0.00 75 1016.3
20260905154544 22 305 3.2 8.0 0.00 0.38 0.00 75 1016.2
20260905153042 22 130 4.8 12.9 0.00 0.38 0.00 76 1016.1
20260905151542 22 46 3.2 8.0 0.00 0.38 0.00 77 1015.9
20260905150041 22 80 4.8 11.3 0.00 0.38 0.00 78 1015.7
20260905144539 21 127 4.8 9.7 0.00 0.79 0.00 81 1015.6
20260905143042 20 116 0.0 6.4 0.00 0.79 0.00 87 1015.4